Location: Bottens
(46.6171°N, 6.6605°E)
Time: 02:42:37
(UTC+00:00)

Cosmos 1242 Rocket - Pass Details

Date: 20 June 2021
Orbit: 446 x 483 km, 81.2° (Epoch: 04 August)

Event Time Altitude Azimuth Distance (km) Brightness Sun altitude
Rises 00:18:51 0° 358° (N) 2,524 7.7 -19.2°
Reaches altitude 10° 00:21:09 10° 11° (N) 1,648 6.5 -19.2°
Maximum altitude 00:24:18 28° 72° (ENE) 930 4.2 -19.1°
Enters shadow 00:26:09 18° 118° (ESE) 1,225 4.4 -19.0°
